Location: Newark
(41.6500°N, 71.4833°W)
Time: 21:02:33
(UTC+00:00)

Courier 1B - Pass Details

Date: 23 January 2020
Orbit: 962 x 1209 km, 28.3° (Epoch: 27 February)

Event Time Altitude Azimuth Distance (km) Brightness Sun altitude
Rises 12:22:59 0° 258° (WSW) 4,065 10.3 2.0°
Reaches altitude 10° 12:26:30 10° 244° (WSW) 3,123 9.8 2.5°
Maximum altitude 12:32:09 22° 197° (SSW) 2,359 9.7 3.5°
Drops below altitude 10° 12:37:50 10° 150° (SSE) 3,132 11.4 4.4°
Sets 12:41:23 0° 136° (SE) 4,080 12.7 4.9°
